Temperature
17 17 17 17 17 17 17 17 17 17 17 17 16 16 16 16 16 15 15 15 15 15 15 15 15 14 14 14 14 14 14 13 13 13 13 13 13 13
16 16 16 16 16 16 16 17 17 16 16 16 16 16 16 15 15 15 15 15 15 15 15 14 14 14 14 14 13 13 13 13 13 12 12 12 12 12
16 16 16 16 16 16 16 16 16 16 16 15 15 15 15 14 14 14 14 14 14 14 14 14 14 13 13 13 13 13 12 12 12 12 12 11 11 11
16 16 15 15 15 15 15 15 15 15 15 15 14 14 14 14 14 13 13 13 13 13 13 13 13 13 12 12 12 12 11 11 11 11 11 11 10 10
15 15 15 15 15 15 15 15 15 15 15 14 14 14 13 13 13 13 12 12 12 12 12 12 12 12 12 11 11 11 11 10 10 10 10 10 9 9
15 15 15 15 14 14 14 14 14 14 14 14 14 13 13 12 12 12 12 11 11 11 11 11 11 11 11 10 10 10 10 10 9 9 9 9 9 9
15 15 14 14 14 14 14 14 14 13 13 13 13 13 12 12 12 12 11 11 10 10 10 10 10 10 9 9 9 9 9 9 9 8 8 8 8 8
14 14 14 14 14 14 14 13 13 13 13 13 12 12 11 11 11 11 11 11 10 9 9 9 9 9 9 8 8 8 8 8 8 8 7 7 7 7
14 13 13 13 13 13 13 13 12 12 12 12 11 11 11 10 10 10 10 10 9 9 9 9 8 8 8 8 8 7 7 7 7 7 7 7 6 6
13 13 12 12 12 12 12 12 12 11 11 11 11 10 10 10 10 9 9 9 9 8 8 8 8 8 8 7 7 7 7 6 6 6 6 6 6 6
12 12 12 12 11 11 11 11 11 10 10 10 10 10 10 9 9 9 9 9 9 8 8 8 8 8 7 7 6 6 6 6 6 6 6 6 5 6
11 11 11 11 11 10 10 10 10 9 9 9 9 9 9 8 8 8 8 9 9 8 7 7 7 7 7 7 6 6 6 6 5 5 5 5 5 5
11 10 10 10 10 10 9 9 9 9 8 8 8 8 8 8 8 7 7 8 8 7 7 7 7 7 7 7 6 6 6 6 5 5 5 5 5 5
10 10 9 9 9 9 9 9 8 8 8 8 8 8 8 7 7 7 7 7 6 6 6 6 6 6 7 7 7 6 6 6 5 5 5 5 5 4
9 9 9 8 8 8 8 8 8 8 8 8 8 7 7 6 6 6 6 6 6 5 5 5 5 5 6 6 6 6 6 6 5 5 5 5 5 5
8 8 8 8 8 7 7 7 7 7 7 7 7 7 6 6 6 6 6 6 6 6 5 5 5 5 5 5 6 6 6 6 5 5 4 4 5 5
8 8 7 7 7 7 7 7 7 7 7 6 6 6 6 6 6 6 6 6 6 6 6 5 5 5 5 5 5 5 5 5 5 5 4 5 5 5
8 8 7 7 7 7 7 6 6 6 6 6 6 6 6 6 6 6 6 6 6 6 6 6 5 6 6 5 5 5 5 5 5 4 4 5 5 5
7 7 7 7 7 7 7 6 6 6 6 6 6 6 6 6 6 6 6 6 6 6 6 5 5 6 6 6 5 5 4 4 4 5 5 5 5 5
7 7 7 6 6 6 6 6 6 5 5 5 5 5 5 6 6 6 6 5 6 6 6 5 5 5 5 5 5 5 5 4 4 4 4 4 4 4
7 7 6 6 6 6 5 5 5 5 5 5 5 5 5 5 5 6 6 5 5 6 6 5 5 4 4 4 5 5 5 4 4 4 4 4 4 4
7 6 6 6 6 5 5 5 5 5 5 5 5 5 5 5 5 5 5 5 5 6 5 5 5 5 5 5 5 5 5 5 4 4 4 4 3 4
6 6 6 6 5 5 5 5 5 5 5 5 5 5 5 5 5 5 5 5 5 5 5 5 5 5 5 5 5 5 5 5 5 5 4 4 3 3
Wind_Speed
6 7 6 6 6 6 6 6 6 6 5 3 3 1 1 2 3 3 3 6 6 5 5 5 5 5 5 5 5 4 4 4 4 3 3 3 2 2
5 6 6 6 5 5 5 5 6 6 5 3 1 0 1 2 4 4 6 9 8 7 7 7 7 7 7 7 7 7 6 6 6 5 5 4 4 4
6 5 6 6 5 5 5 5 5 4 5 4 1 1 1 1 3 3 4 6 7 9 10 10 9 9 9 8 8 8 8 7 7 6 6 5 4 4
5 4 4 4 4 4 4 4 4 4 5 5 3 1 0 1 2 2 3 5 6 10 11 10 10 10 10 9 9 8 8 7 6 6 5 5 5 4
3 3 3 3 3 3 3 4 3 3 3 4 3 2 1 2 3 3 4 4 5 9 11 11 11 11 11 10 9 9 8 7 6 5 5 5 4 4
1 1 1 2 2 3 3 3 2 2 2 3 3 3 2 2 3 3 3 3 3 5 7 8 10 11 11 10 9 8 7 7 6 5 5 5 4 4
1 1 2 3 4 2 0 1 1 2 3 3 3 2 2 2 2 2 3 3 3 2 2 4 5 5 7 9 9 8 7 6 5 4 4 4 3 3
2 3 4 5 7 9 10 9 6 2 1 2 2 2 2 2 2 2 2 2 1 1 0 2 2 2 3 6 7 7 6 5 4 4 3 3 3 3
3 3 3 5 5 6 9 9 10 10 7 3 3 2 3 2 2 3 2 2 2 2 0 1 1 2 3 7 8 7 6 5 4 3 3 3 3 3
5 5 5 5 5 5 7 8 8 9 7 6 5 5 4 3 2 3 4 4 3 3 1 0 1 1 2 4 8 6 5 5 4 3 3 3 5 7
6 6 6 6 7 5 8 8 8 8 13 14 13 12 11 9 5 2 3 2 2 2 1 1 0 0 1 2 6 8 6 4 2 1 1 3 7 11
6 7 9 8 6 5 6 7 7 6 7 8 9 9 9 9 8 5 2 1 1 2 2 2 1 1 1 1 0 2 3 6 6 5 3 2 6 8
6 6 6 9 8 7 6 6 5 4 6 6 7 6 6 6 7 7 7 4 3 3 3 2 2 2 2 1 0 1 2 3 3 3 6 5 2 6
6 6 7 9 9 8 7 6 3 2 5 5 6 6 6 6 6 7 8 8 7 6 5 4 3 3 3 2 2 2 3 3 4 5 5 3 6 8
8 10 10 9 9 9 8 3 2 3 5 5 5 5 5 5 5 5 5 5 4 5 5 4 3 3 4 3 3 3 3 3 4 5 5 6 6 5
9 10 9 7 7 7 5 3 4 5 4 4 5 4 4 4 3 3 2 2 2 3 4 2 3 4 4 4 4 4 4 4 4 5 6 7 7 6
7 6 6 5 5 5 5 4 4 4 4 4 4 3 3 3 3 2 1 1 1 2 2 1 1 2 3 4 4 5 5 5 5 5 7 7 6 6
5 6 5 5 5 4 4 4 4 3 3 3 3 2 2 2 2 1 1 1 2 2 3 3 3 3 3 2 1 5 5 6 6 6 7 8 7 6
5 5 4 4 4 3 3 3 3 3 2 2 2 2 1 1 1 1 1 2 2 2 3 3 4 5 6 4 1 2 5 7 7 7 7 8 8 8
4 5 4 3 3 3 3 3 3 3 2 1 1 1 1 1 1 1 2 3 3 3 3 3 4 5 6 7 7 5 4 6 7 8 9 9 8 8
4 4 4 3 3 3 2 2 2 2 1 0 1 0 0 1 1 2 1 0 4 4 4 4 3 4 7 6 7 6 4 3 5 7 9 10 10 9
4 3 3 3 3 2 2 2 2 2 2 1 1 1 1 2 2 2 3 3 3 4 5 4 3 5 6 7 8 8 7 7 8 13 13 11 9 10
3 3 3 3 3 3 2 2 2 1 1 1 1 2 2 2 3 3 3 4 4 5 6 6 5 5 6 7 8 9 10 10 9 8 6 10 15 18
Wind_Direction
230 227 238 247 247 251 254 260 262 261 248 215 215 204 164 97 83 118 112 113 131 137 140 139 137 134 133 131 131 127 123 115 108 100 88 78 63 48
242 247 244 246 248 249 253 255 258 264 264 269 238 249 60 117 98 112 105 99 102 116 119 121 121 120 118 116 113 112 110 106 101 95 85 73 63 57
235 237 242 252 248 250 250 250 252 253 246 249 246 138 110 114 100 114 115 107 99 109 112 112 111 111 110 109 108 107 105 102 99 94 86 77 67 54
227 230 240 239 241 255 258 254 252 249 237 230 229 214 104 128 115 112 105 106 101 102 106 105 105 105 103 101 100 98 98 97 96 94 90 82 71 58
225 226 234 238 247 250 254 252 248 242 232 216 210 185 171 149 126 107 95 86 101 107 106 104 101 100 98 96 95 94 92 92 94 94 93 85 74 59
197 230 242 242 244 241 237 239 233 221 196 188 182 177 170 164 158 147 128 106 84 90 90 100 105 104 101 95 88 86 89 90 90 91 87 79 68 55
104 83 64 65 51 42 65 147 189 205 193 179 176 170 160 156 160 147 133 117 92 76 101 103 110 103 105 96 83 75 77 79 79 81 81 76 62 48
114 107 100 88 84 76 67 58 48 62 128 157 154 133 122 121 119 133 143 145 124 73 62 90 90 87 83 83 79 78 75 73 69 72 73 63 45 22
90 89 88 85 94 100 91 82 62 50 45 62 88 85 105 105 122 135 118 96 83 93 122 97 71 64 80 89 93 87 78 69 63 64 58 36 4 336
80 82 88 86 82 95 97 86 75 62 61 71 79 69 71 72 93 117 120 126 128 98 11 30 94 72 100 110 120 110 97 81 67 50 26 355 327 308
78 72 82 88 67 81 103 99 92 87 76 78 79 82 76 67 58 106 125 146 127 101 39 324 146 216 188 147 145 153 152 140 120 92 359 334 323 307
95 83 71 80 68 63 100 104 101 95 94 93 91 92 84 75 59 40 40 85 94 93 58 317 324 300 231 120 86 175 192 187 198 202 205 278 324 317
108 98 85 80 76 62 75 92 97 107 109 106 103 96 89 78 68 56 39 28 35 61 51 337 353 342 329 331 309 317 315 318 287 240 208 201 269 309
108 104 101 95 86 76 83 86 98 122 105 100 95 87 80 75 70 64 57 53 50 57 40 8 360 346 320 315 318 313 307 307 309 315 317 246 239 234
98 97 106 113 114 94 88 97 137 101 97 99 94 86 80 80 86 91 90 88 87 73 61 21 353 341 311 314 320 317 315 320 320 319 318 316 314 303
110 113 113 99 97 99 112 100 80 71 73 88 93 93 95 99 87 72 78 91 88 94 84 49 6 333 318 330 317 323 326 322 320 324 323 308 301 303
127 126 119 114 104 100 97 90 89 95 91 89 94 96 93 88 76 61 24 9 36 42 56 38 1 304 300 308 321 332 326 318 320 330 307 301 303 304
127 117 113 111 109 111 112 108 96 86 85 89 91 89 88 82 75 60 27 5 11 13 9 359 340 319 279 175 309 322 320 322 322 316 302 306 310 314
127 118 120 121 119 120 116 108 100 90 75 89 91 90 90 78 54 34 18 358 356 356 353 346 339 334 326 330 205 236 313 317 313 312 313 311 310 315
125 124 129 132 128 120 112 110 112 117 121 116 105 83 43 24 20 0 14 353 338 333 328 335 344 338 327 324 318 301 253 302 318 318 317 312 307 300
135 134 139 137 128 121 115 116 122 121 106 132 113 80 326 322 331 325 341 132 297 315 322 335 0 295 290 296 298 309 316 260 268 293 306 309 312 311
142 141 134 127 128 133 145 156 156 153 168 204 190 241 270 290 292 297 312 309 306 319 320 324 323 300 301 305 309 312 313 310 272 241 247 265 301 312
145 143 146 155 160 171 175 181 191 183 194 229 244 259 277 288 291 294 298 303 311 315 312 314 317 310 309 306 307 310 314 313 311 307 290 241 238 250
Height
1571 1571 1572 1573 1573 1574 1574 1575 1576 1574 1574 1574 1575 1575 1575 1575 1575 1575 1575 1574 1574 1574 1575 1575 1575 1575 1575 1575 1575 1575 1575 1574 1574 1574 1573 1573 1573 1572
1566 1567 1568 1569 1569 1570 1570 1571 1571 1571 1570 1571 1571 1571 1571 1572 1571 1571 1571 1571 1571 1571 1571 1571 1571 1572 1572 1572 1571 1571 1571 1571 1570 1570 1570 1569 1569 1568
1563 1563 1564 1564 1565 1566 1566 1566 1567 1567 1566 1566 1567 1567 1567 1567 1568 1568 1568 1568 1568 1568 1568 1568 1568 1568 1568 1568 1568 1568 1567 1567 1566 1566 1566 1565 1565 1564
1559 1559 1560 1561 1560 1561 1562 1562 1562 1562 1563 1562 1563 1563 1563 1564 1564 1564 1565 1565 1565 1565 1565 1565 1565 1565 1565 1565 1565 1564 1564 1564 1564 1563 1562 1562 1561 1560
1556 1556 1557 1557 1557 1557 1557 1558 1558 1558 1558 1559 1559 1559 1560 1561 1561 1561 1562 1562 1563 1562 1562 1562 1562 1562 1562 1562 1562 1561 1561 1561 1561 1560 1559 1559 1558 1557
1553 1553 1554 1554 1554 1553 1554 1554 1554 1555 1555 1555 1556 1556 1557 1558 1559 1559 1559 1560 1560 1561 1560 1560 1560 1560 1560 1560 1559 1559 1559 1558 1558 1557 1557 1556 1555 1554
1550 1550 1551 1551 1551 1551 1551 1551 1551 1552 1553 1553 1553 1554 1555 1555 1556 1556 1557 1558 1558 1559 1559 1559 1559 1559 1558 1557 1557 1557 1556 1556 1555 1554 1554 1553 1552 1551
1548 1548 1548 1548 1548 1549 1549 1548 1549 1549 1550 1551 1551 1551 1552 1553 1553 1554 1555 1556 1556 1557 1557 1558 1558 1557 1557 1556 1555 1554 1554 1553 1553 1552 1551 1550 1549 1548
1547 1547 1547 1547 1547 1547 1547 1547 1547 1547 1548 1549 1549 1550 1550 1551 1551 1552 1553 1554 1554 1555 1555 1556 1556 1556 1555 1554 1553 1552 1552 1551 1550 1549 1548 1547 1546 1545
1546 1546 1546 1546 1546 1547 1547 1546 1546 1546 1546 1547 1548 1548 1549 1549 1550 1551 1552 1552 1553 1554 1554 1555 1554 1554 1554 1552 1551 1551 1550 1549 1548 1547 1546 1544 1543 1542
1545 1546 1546 1546 1546 1546 1547 1546 1547 1547 1547 1547 1548 1548 1548 1549 1550 1551 1552 1552 1553 1553 1553 1553 1553 1553 1553 1552 1550 1549 1548 1547 1546 1545 1544 1542 1541 1539
1545 1545 1546 1546 1546 1546 1547 1547 1547 1548 1549 1548 1548 1549 1549 1549 1549 1550 1551 1552 1552 1553 1552 1552 1552 1552 1552 1552 1551 1549 1548 1546 1545 1543 1542 1540 1539 1537
1545 1545 1546 1546 1547 1547 1547 1548 1548 1549 1550 1550 1550 1550 1550 1550 1551 1550 1550 1551 1552 1552 1552 1551 1551 1551 1551 1550 1550 1549 1548 1547 1545 1543 1541 1539 1537 1536
1545 1545 1546 1547 1547 1547 1547 1548 1549 1550 1551 1552 1552 1552 1552 1552 1551 1551 1550 1550 1550 1551 1550 1550 1550 1549 1549 1549 1548 1548 1547 1546 1544 1543 1541 1539 1536 1534
1545 1546 1546 1547 1548 1548 1549 1549 1550 1551 1552 1553 1553 1553 1553 1552 1552 1552 1551 1551 1551 1551 1550 1549 1549 1549 1549 1548 1547 1546 1545 1544 1543 1541 1539 1538 1536 1534
1546 1546 1547 1548 1549 1549 1550 1551 1551 1552 1552 1553 1554 1554 1554 1554 1554 1554 1554 1553 1553 1552 1551 1549 1548 1548 1548 1547 1546 1545 1544 1543 1541 1540 1537 1535 1534 1532
1547 1548 1549 1550 1550 1551 1552 1552 1553 1553 1553 1554 1555 1555 1555 1555 1555 1554 1554 1554 1554 1553 1552 1550 1549 1548 1546 1546 1546 1544 1543 1542 1540 1538 1535 1533 1532 1530
1548 1549 1550 1551 1552 1553 1554 1554 1554 1554 1554 1555 1555 1555 1555 1556 1556 1555 1555 1554 1554 1553 1552 1551 1550 1548 1547 1545 1544 1543 1542 1540 1538 1536 1534 1532 1530 1528
1549 1550 1551 1552 1552 1554 1555 1555 1555 1555 1555 1555 1555 1556 1556 1556 1556 1556 1555 1554 1554 1553 1552 1551 1550 1548 1546 1545 1543 1541 1540 1538 1536 1534 1532 1530 1527 1525
1550 1551 1552 1552 1553 1554 1555 1555 1555 1555 1555 1556 1556 1556 1556 1556 1556 1556 1555 1554 1554 1553 1552 1551 1549 1547 1546 1545 1542 1540 1538 1536 1534 1532 1530 1527 1524 1522
1551 1551 1552 1553 1553 1554 1554 1555 1555 1556 1556 1556 1556 1556 1556 1556 1556 1556 1555 1554 1553 1552 1551 1550 1548 1546 1544 1543 1541 1539 1537 1534 1531 1529 1527 1524 1521 1519
1551 1552 1552 1553 1553 1554 1554 1555 1555 1555 1555 1556 1556 1556 1556 1556 1555 1555 1554 1553 1552 1551 1550 1549 1546 1545 1543 1541 1539 1536 1534 1532 1529 1525 1523 1521 1519 1516
1551 1552 1552 1552 1553 1553 1554 1554 1555 1555 1555 1556 1556 1556 1555 1555 1554 1554 1553 1552 1551 1550 1548 1547 1545 1543 1541 1539 1537 1534 1532 1529 1526 1524 1521 1518 1515 1512